Volver al catálogo

PEGASUS R/B

ActivoLEO
NORAD 26375·ROCKET BODY·🇺🇸 United States

Lanzado Jun 7, 2000 desde Vandenberg Space Force Base

Loading…

Próximos Pases (próximas 24 horas)

TLE

ActualizadoSource: Space-Track

Época: Sep 14, 2026, 13:37 UTC

1 26375U 00030B   26257.56789559  .00003386  00000-0  26794-3 0  9993
2 26375  68.9420 279.7710 0588610 339.9314  17.9484 14.19362851677572

Sigue PEGASUS R/B en tiempo real con AllMySat

Download on the App Store